Weather History for KVOK - March, 2014

Change the Weather History Date:

Friday, March 28, 2014

  Actual Average Record
Temperature  
Mean Temperature 38 °F -  
Max Temperature 46 °F - - ()
Min Temperature 29 °F - - ()
Degree Days  
Heating Degree Days 28    
Moisture  
Dew Point 29 °F    
Average Humidity 82    
Maximum Humidity 100    
Minimum Humidity 38    
Precipitation  
Precipitation 0.02 in - - ()
Sea Level Pressure  
Sea Level Pressure 29.85 in    
Wind  
Wind Speed 11 mph (NNW)    
Max Wind Speed 18 mph    
Max Gust Speed 26 mph    
Visibility 10 miles    
Events Rain , Snow    
T = Trace of Precipitation, MM = Missing Value Source: NWS Daily Summary

Daily Weather History Graph

Daily Weather History Graph

Search for Another Location

Airport or City:

Trip Planner

Search our weather history database for the weather conditions in past years. The results will help you decide how hot, cold, wet, or windy it might be!

Date:

Astronomy

Mar. 28, 2014 Rise Set
Actual Time 6:49 AM CDT 7:23 PM CDT
Civil Twilight 6:20 AM CDT 7:52 PM CDT
Nautical Twilight 5:46 AM CDT 8:26 PM CDT
Astronomical Twilight 5:11 AM CDT 9:02 PM CDT
Moon 5:25 AM CDT (3/28) 5:16 PM CDT (3/28)
Length of Visible Light 13h 31m
Length of Day
12h 33m
Waning Crescent, 6% of the Moon is Illuminated
Mar 28
Waning Crescent
Mar 30
New
Apr 7
First Quarter
Apr 15
Full
Apr 22
Last Quarter

Hourly Weather History & Observations

Time (CDT) Temp. Windchill Dew Point Humidity Pressure Visibility Wind Dir Wind Speed Gust Speed Precip Events Conditions
12:13 AM 32.0 °F 23.6 °F 32.0 °F 100% 29.49 in 9.0 mi NNW 10.4 mph - N/A Snow Light Snow
12:18 AM 32.0 °F 23.6 °F 32.0 °F 100% 29.50 in 10.0 mi NW 10.4 mph - N/A Snow Light Snow
12:58 AM 33.8 °F 24.3 °F 33.8 °F 100% 29.57 in 10.0 mi NNW 13.8 mph - 0.02 in Rain Light Rain
1:28 AM 33.8 °F 25.8 °F 33.8 °F 100% 29.54 in 10.0 mi NNW 10.4 mph - N/A Rain Light Rain
1:46 AM 33.8 °F 25.3 °F 33.8 °F 100% 29.56 in 10.0 mi NNW 11.5 mph 19.6 mph N/A   Overcast
1:51 AM 33.8 °F 25.8 °F 33.8 °F 100% 29.56 in 10.0 mi NNW 10.4 mph - N/A   Light Drizzle
1:58 AM 34.5 °F 26.2 °F 34.5 °F 100% 29.61 in 10.0 mi NW 11.5 mph - 0.00 in Rain Light Rain
2:06 AM 33.8 °F 25.3 °F 33.8 °F 100% 29.57 in 10.0 mi NNW 11.5 mph - N/A   Overcast
2:11 AM 35.6 °F 25.9 °F 35.6 °F 100% 29.58 in 10.0 mi NW 16.1 mph - N/A   Overcast
2:41 AM 35.6 °F 27.1 °F 35.6 °F 100% 29.61 in 10.0 mi NW 12.7 mph - N/A   Overcast
2:44 AM 35.6 °F 26.6 °F 35.6 °F 100% 29.61 in 10.0 mi NW 13.8 mph - N/A   Overcast
2:54 AM 35.6 °F 27.1 °F 35.6 °F 100% 29.61 in 10.0 mi NW 12.7 mph 19.6 mph N/A   Overcast
2:58 AM 34.9 °F 26.6 °F 34.9 °F 100% 29.65 in 10.0 mi NW 11.5 mph - 0.00 in   Overcast
3:08 AM 33.8 °F 25.3 °F 33.8 °F 100% 29.63 in 10.0 mi NW 11.5 mph - N/A   Overcast
3:58 AM 33.3 °F 23.2 °F 33.3 °F 100% 29.71 in 10.0 mi NW 15.0 mph - N/A   Overcast
4:28 AM 32.0 °F 22.1 °F 32.0 °F 100% 29.70 in 10.0 mi NNW 13.8 mph 26.5 mph N/A   Overcast
4:33 AM 32.0 °F 23.0 °F 32.0 °F 100% 29.71 in 10.0 mi NW 11.5 mph 20.7 mph N/A   Overcast
4:58 AM 32.0 °F 22.1 °F 31.8 °F 99% 29.77 in 10.0 mi NW 13.8 mph - N/A   Overcast
5:53 AM 32.0 °F 20.5 °F 30.2 °F 93% 29.80 in 10.0 mi NW 18.4 mph 24.2 mph N/A   Overcast
5:58 AM 31.1 °F 19.7 °F 29.5 °F 94% 29.84 in 10.0 mi NW 17.3 mph 26.5 mph N/A   Overcast
6:58 AM 30.6 °F 20.7 °F 27.9 °F 90% 29.90 in 10.0 mi NW 12.7 mph - N/A   Overcast
7:58 AM 30.2 °F 18.9 °F 26.6 °F 86% 29.95 in 10.0 mi NW 16.1 mph 21.9 mph N/A   Overcast
8:58 AM 30.2 °F 19.8 °F 26.6 °F 86% 29.97 in 10.0 mi NW 13.8 mph 20.7 mph N/A   Overcast
9:58 AM 32.0 °F 22.5 °F 24.8 °F 75% 30.01 in 10.0 mi NNW 12.7 mph - N/A   Overcast
10:38 AM 32.0 °F 23.0 °F 26.6 °F 80% 29.99 in 10.0 mi North 11.5 mph - N/A   Mostly Cloudy
10:58 AM 35.6 °F 27.5 °F 26.6 °F 70% 30.04 in 10.0 mi NNW 11.5 mph - N/A   Scattered Clouds
11:58 AM 39.2 °F 31.6 °F 26.6 °F 61% 30.05 in 10.0 mi NNW 12.7 mph - N/A   Scattered Clouds
12:58 PM 41.0 °F 34.3 °F 24.8 °F 53% 30.07 in 10.0 mi WNW 11.5 mph - N/A   Partly Cloudy
1:58 PM 42.8 °F 39.3 °F 23.0 °F 46% 30.09 in 10.0 mi North 5.8 mph - N/A   Scattered Clouds
2:58 PM 43.9 °F 39.9 °F 23.2 °F 44% 30.08 in 10.0 mi NW 6.9 mph - N/A   Clear
3:58 PM 45.5 °F - 21.9 °F 39% 30.11 in 10.0 mi Variable 2.3 mph - N/A   Clear
4:58 PM 45.3 °F 43.0 °F 20.8 °F 38% 30.12 in 10.0 mi North 4.6 mph - N/A   Clear
5:58 PM 43.3 °F 39.2 °F 21.0 °F 41% 30.15 in 10.0 mi North 6.9 mph - N/A   Clear
6:58 PM 39.2 °F 34.2 °F 21.9 °F 50% 30.16 in 10.0 mi NE 6.9 mph - N/A   Scattered Clouds
7:58 PM 36.5 °F - 21.6 °F 55% 30.18 in 10.0 mi North 2.3 mph - N/A   Mostly Cloudy
8:58 PM 34.5 °F - 22.1 °F 61% 30.21 in 10.0 mi ENE 2.3 mph - N/A   Clear
9:58 PM 31.6 °F 27.0 °F 25.7 °F 79% 30.20 in 10.0 mi North 4.6 mph - N/A   Clear
10:58 PM 31.3 °F 27.9 °F 23.7 °F 74% 30.20 in 10.0 mi NNW 3.5 mph - N/A   Scattered Clouds
11:58 PM 29.3 °F - 23.4 °F 78% 30.20 in 10.0 mi WNW 1.2 mph - N/A   Clear